| time (UTC) | temp F | wind direction | speed MPH | gust MPH | rain 1hr in | rain 24hr in | rain mn in | humidity % | barometer mb |
| 20260506081510 | 53 | 13 | 0.0 | 0.0 | 0.04 | 1.63 | 1.23 | 1 | 1003.7 |
| 20260506073010 | 52 | 13 | 0.0 | 4.0 | 0.03 | 1.61 | 1.21 | 1 | 1003.6 |
| 20260506071515 | 52 | 13 | 0.0 | 0.0 | 0.01 | 1.59 | 1.19 | 1 | 1003.6 |
| 20260506071510 | 52 | 13 | 0.0 | 0.0 | 0.01 | 1.59 | 1.19 | 1 | 1003.6 |
| 20260506061510 | 52 | 13 | 0.0 | 0.0 | 0.01 | 1.58 | 1.18 | 1 | 1003.6 |
| 20260506050428 | 51 | 13 | 0.0 | 0.0 | 0.01 | 1.57 | 1.17 | 1 | 1003.4 |
| 20260506044511 | 51 | 13 | 0.0 | 0.0 | 0.01 | 1.57 | 1.17 | 1 | 1003.6 |
| 20260506043351 | 51 | 13 | 0.0 | 0.0 | 0.03 | 1.57 | 1.17 | 1 | 1003.6 |
| 20260506043011 | 51 | 13 | 0.0 | 0.0 | 0.03 | 1.57 | 1.17 | 1 | 1003.6 |
| 20260506041516 | 52 | 13 | 0.0 | 0.0 | 0.04 | 1.56 | 1.16 | 1 | 1003.6 |
| 20260506041511 | 52 | 13 | 0.0 | 0.0 | 0.04 | 1.56 | 1.16 | 1 | 1003.6 |
| 20260506040011 | 52 | 13 | 0.0 | 0.0 | 0.10 | 1.56 | 1.16 | 1 | 1003.5 |
| 20260506034511 | 52 | 13 | 0.0 | 0.0 | 0.15 | 1.57 | 1.16 | 1 | 1003.5 |
| 20260506033434 | 52 | 13 | 0.0 | 0.0 | 0.18 | 1.55 | 1.14 | 1 | 1003.5 |
| 20260506033011 | 52 | 13 | 0.0 | 0.0 | 0.18 | 1.55 | 1.14 | 1 | 1003.5 |
| 20260506031516 | 52 | 13 | 0.0 | 0.0 | 0.22 | 1.53 | 1.12 | 1 | 1003.7 |
| 20260506031511 | 52 | 13 | 0.0 | 0.0 | 0.22 | 1.53 | 1.12 | 1 | 1003.7 |
| 20260506030123 | 52 | 13 | 0.0 | 2.0 | 0.22 | 1.47 | 1.06 | 1 | 1003.9 |
| 20260506030018 | 52 | 13 | 0.0 | 2.0 | 0.22 | 1.47 | 1.06 | 1 | 1003.9 |
| 20260506030011 | 52 | 13 | 0.0 | 2.0 | 0.22 | 1.47 | 1.06 | 1 | 1003.9 |
| 20260506024511 | 52 | 13 | 0.0 | 0.0 | 0.21 | 1.43 | 1.01 | 1 | 1004.1 |
| 20260506023350 | 52 | 13 | 0.0 | 0.0 | 0.27 | 1.38 | 0.96 | 1 | 1004.3 |
| 20260506023011 | 52 | 13 | 0.0 | 0.0 | 0.27 | 1.38 | 0.96 | 1 | 1004.3 |
| 20260506021518 | 52 | 13 | 0.0 | 0.0 | 0.29 | 1.32 | 0.90 | 1 | 1004.3 |
| 20260506021511 | 52 | 13 | 0.0 | 0.0 | 0.29 | 1.32 | 0.90 | 1 | 1004.3 |
| 20260506020011 | 53 | 13 | 0.0 | 0.0 | 0.27 | 1.26 | 0.84 | 1 | 1004.3 |
| 20260506014511 | 53 | 13 | 0.0 | 0.0 | 0.28 | 1.22 | 0.80 | 1 | 1004.4 |
| 20260506013011 | 53 | 13 | 0.0 | 0.0 | 0.20 | 1.11 | 0.69 | 1 | 1004.3 |
| 20260506011511 | 53 | 13 | 0.0 | 0.0 | 0.17 | 1.03 | 0.61 | 1 | 1004.5 |
| 20260506010011 | 53 | 13 | 0.0 | 0.0 | 0.18 | 0.99 | 0.57 | 1 | 1004.4 |
| 20260506004511 | 53 | 13 | 0.0 | 0.0 | 0.16 | 0.94 | 0.52 | 1 | 1004.5 |
| 20260506003011 | 53 | 13 | 0.0 | 0.0 | 0.17 | 0.91 | 0.49 | 1 | 1004.7 |
| 20260506001511 | 53 | 13 | 0.0 | 0.0 | 0.16 | 0.86 | 0.44 | 1 | 1004.8 |
| 20260506000016 | 54 | 13 | 0.0 | 0.0 | 0.21 | 0.81 | 0.39 | 1 | 1005.0 |
| 20260506000011 | 54 | 13 | 0.0 | 0.0 | 0.21 | 0.81 | 0.39 | 1 | 1005.0 |
| 20260505234517 | 54 | 13 | 0.0 | 0.0 | 0.28 | 0.78 | 0.36 | 1 | 1005.1 |
| 20260505234511 | 54 | 13 | 0.0 | 0.0 | 0.28 | 0.78 | 0.36 | 1 | 1005.1 |
| 20260505233011 | 54 | 13 | 0.0 | 0.0 | 0.29 | 0.74 | 0.32 | 1 | 1005.2 |
| 20260505231511 | 54 | 13 | 0.0 | 0.0 | 0.27 | 0.70 | 0.28 | 1 | 1005.3 |
| 20260505230011 | 54 | 13 | 0.0 | 0.0 | 0.18 | 0.60 | 0.18 | 1 | 1005.4 |
| 20260505224516 | 54 | 13 | 0.0 | 0.0 | 0.10 | 0.50 | 0.08 | 1 | 1005.4 |
| 20260505224511 | 54 | 13 | 0.0 | 0.0 | 0.10 | 0.50 | 0.08 | 1 | 1005.4 |
| 20260505223011 | 54 | 13 | 0.0 | 0.0 | 0.07 | 0.45 | 0.03 | 1 | 1005.5 |
| 20260505221511 | 54 | 13 | 0.0 | 0.0 | 0.07 | 0.43 | 0.01 | 1 | 1005.5 |
| 20260505220011 | 54 | 13 | 0.0 | 0.0 | 0.08 | 0.42 | 0.00 | 1 | 1005.5 |
| 20260505214511 | 54 | 13 | 0.0 | 0.0 | 0.08 | 0.40 | 0.40 | 1 | 1005.7 |
| 20260505213016 | 54 | 13 | 0.0 | 0.0 | 0.10 | 0.38 | 0.38 | 1 | 1005.7 |
| 20260505213011 | 54 | 13 | 0.0 | 0.0 | 0.10 | 0.38 | 0.38 | 1 | 1005.7 |
| 20260505211511 | 54 | 13 | 0.0 | 0.0 | 0.11 | 0.36 | 0.36 | 1 | 1005.8 |
| 20260505210011 | 54 | 13 | 0.0 | 0.0 | 0.12 | 0.34 | 0.34 | 1 | 1005.7 |
| 20260505204511 | 54 | 13 | 0.0 | 0.0 | 0.14 | 0.32 | 0.32 | 1 | 1005.8 |
| 20260505203011 | 54 | 13 | 0.0 | 5.0 | 0.11 | 0.28 | 0.28 | 1 | 1005.7 |
| 20260505201511 | 54 | 13 | 0.0 | 0.0 | 0.09 | 0.25 | 0.25 | 1 | 1005.8 |
| 20260505200011 | 55 | 13 | 0.0 | 0.0 | 0.06 | 0.22 | 0.22 | 1 | 1005.8 |
| 20260505194511 | 55 | 13 | 0.0 | 0.0 | 0.03 | 0.24 | 0.18 | 1 | 1005.9 |
| 20260505193011 | 55 | 13 | 0.0 | 0.0 | 0.03 | 0.23 | 0.17 | 1 | 1005.8 |
| 20260505191511 | 55 | 13 | 0.0 | 0.0 | 0.03 | 0.22 | 0.16 | 1 | 1006.0 |
| 20260505190011 | 55 | 13 | 0.0 | 0.0 | 0.04 | 0.22 | 0.16 | 1 | 1005.9 |
| 20260505184511 | 55 | 13 | 1.0 | 4.0 | 0.04 | 0.34 | 0.15 | 1 | 1005.7 |
| 20260505183011 | 56 | 14 | 0.0 | 0.0 | 0.04 | 0.33 | 0.14 | 1 | 1005.8 |
| 20260505181511 | 56 | 355 | 1.0 | 9.0 | 0.05 | 0.32 | 0.13 | 1 | 1005.6 |
| 20260505180011 | 56 | 26 | 0.0 | 4.0 | 0.06 | 0.31 | 0.12 | 1 | 1005.8 |
| 20260505174511 | 56 | 34 | 1.0 | 9.0 | 0.08 | 0.32 | 0.11 | 1 | 1005.6 |
| 20260505173019 | 57 | 5 | 1.0 | 9.0 | 0.08 | 0.31 | 0.10 | 1 | 1005.6 |
| 20260505173011 | 57 | 5 | 1.0 | 9.0 | 0.08 | 0.31 | 0.10 | 1 | 1005.6 |
| 20260505171511 | 57 | 53 | 0.0 | 0.0 | 0.06 | 0.29 | 0.08 | 1 | 1005.9 |
| 20260505170011 | 58 | 53 | 1.0 | 5.0 | 0.04 | 0.27 | 0.06 | 1 | 1006.0 |
| 20260505164511 | 59 | 57 | 1.0 | 6.0 | 0.01 | 0.24 | 0.03 | 1 | 1005.9 |
| 20260505163011 | 60 | 56 | 2.0 | 5.0 | 0.00 | 0.23 | 0.02 | 1 | 1006.3 |
| 20260505161511 | 61 | 56 | 1.0 | 7.0 | 0.00 | 0.23 | 0.02 | 1 | 1006.2 |
| 20260505153011 | 62 | 36 | 2.0 | 7.0 | 0.00 | 0.23 | 0.02 | 1 | 1006.4 |
| 20260505151511 | 61 | 65 | 3.0 | 10.0 | 0.00 | 0.23 | 0.02 | 1 | 1006.2 |
| 20260505124511 | 68 | 246 | 1.0 | 5.0 | 0.00 | 0.23 | 0.02 | 43 | 1007.3 |
| 20260505123012 | 67 | 242 | 0.0 | 1.0 | 0.00 | 0.23 | 0.02 | 41 | 1007.2 |
| 20260505121512 | 65 | 243 | 1.0 | 4.0 | 0.00 | 0.23 | 0.02 | 41 | 1007.4 |
| 20260505120012 | 65 | 275 | 0.0 | 4.0 | 0.00 | 0.23 | 0.02 | 34 | 1007.5 |
| 20260505114512 | 65 | 271 | 1.0 | 1.0 | 0.00 | 0.23 | 0.02 | 33 | 1007.5 |
| 20260505113012 | 65 | 271 | 1.0 | 4.0 | 0.00 | 0.23 | 0.02 | 25 | 1007.7 |
| 20260505111512 | 65 | 273 | 2.0 | 6.0 | 0.00 | 0.23 | 0.02 | 26 | 1007.8 |
| 20260505101512 | 62 | 38 | 0.0 | 2.0 | 0.00 | 0.23 | 0.02 | 1 | 1008.6 |
| 20260505100012 | 61 | 38 | 0.0 | 2.0 | 0.00 | 0.23 | 0.02 | 1 | 1008.7 |
| 20260505094512 | 60 | 38 | 0.0 | 1.0 | 0.00 | 0.23 | 0.02 | 1 | 1008.8 |
| 20260505093012 | 59 | 38 | 0.0 | 3.0 | 0.00 | 0.23 | 0.02 | 1 | 1008.7 |
| 20260505091518 | 58 | 38 | 0.0 | 0.0 | 0.00 | 0.23 | 0.02 | 1 | 1008.6 |
| 20260505091512 | 58 | 38 | 0.0 | 0.0 | 0.00 | 0.23 | 0.02 | 1 | 1008.6 |
| 20260505090012 | 58 | 38 | 0.0 | 0.0 | 0.00 | 0.23 | 0.02 | 1 | 1008.8 |
| 20260505084513 | 58 | 38 | 0.0 | 0.0 | 0.00 | 0.23 | 0.02 | 1 | 1008.9 |
| 20260505083012 | 57 | 38 | 0.0 | 3.0 | 0.00 | 0.23 | 0.02 | 1 | 1008.9 |